Evreux, France

2:46 AM CEST on August 20, 2017 (GMT +0200)
Fauville Air Base

Weather History for LFOE - April, 2014

Change the Weather History Date:

Saturday, April 12, 2014

  Actual Average Record
Temperature  
Mean Temperature 48 °F -  
Max Temperature 62 °F 58 °F 71 °F (2007)
Min Temperature 35 °F 42 °F 32 °F (1997)
Degree Days  
Heating Degree Days 16    
Moisture  
Dew Point 40 °F    
Average Humidity 69    
Maximum Humidity 100    
Minimum Humidity 31    
Precipitation  
Precipitation 0.00 in - - ()
Sea Level Pressure  
Sea Level Pressure 30.13 in    
Wind  
Wind Speed 5 mph ()    
Max Wind Speed 10 mph    
Max Gust Speed -    
Visibility 5.9 miles    
Events      
Averages and records for this station are not official NWS values.
T = Trace of Precipitation, MM = Missing Value Source: Averaged Metar Reports

Daily Weather History Graph

Daily Weather History Graph

Search for Another Location

Airport or City:

Trip Planner

Search our weather history database for the weather conditions in past years. The results will help you decide how hot, cold, wet, or windy it might be!

Date:

Astronomy

Apr. 12, 2014 Rise Set
Actual Time 7:10 AM CEST 8:42 PM CEST
Civil Twilight 6:37 AM CEST 9:15 PM CEST
Nautical Twilight 5:57 AM CEST 9:56 PM CEST
Astronomical Twilight 5:13 AM CEST 10:40 PM CEST
Moon 5:53 PM CEST (4/12) 5:44 AM CEST (4/12)
Length of Visible Light 14h 38m
Length of Day
13h 32m
Waxing Gibbous, 91% of the Moon is Illuminated
Apr 12
Waxing Gibbous
Apr 15
Full
Apr 22
Last Quarter
Apr 29
New
May 7
First Quarter

Hourly Weather History & Observations

Time (CEST) Temp. Windchill Dew Point Humidity Pressure Visibility Wind Dir Wind Speed Gust Speed Precip Events Conditions
12:00 AM 47 °F - 43 °F 79% 30.16 in 5 mi North 6.9 mph - -   Clear
12:00 AM 46.4 °F 42.9 °F 42.8 °F 87% 30.12 in 5.0 mi North 6.9 mph - N/A   Unknown
12:30 AM 44.6 °F 41.4 °F 41.0 °F 87% 30.12 in 5.0 mi North 5.8 mph - N/A   Unknown
1:00 AM 44 °F - 40 °F 81% 30.16 in 5 mi North 5.8 mph - -   Clear
1:00 AM 44.6 °F 41.4 °F 41.0 °F 87% 30.12 in 5.0 mi North 5.8 mph - N/A   Unknown
1:30 AM 44.6 °F 42.2 °F 41.0 °F 87% 30.12 in 5.6 mi North 4.6 mph - N/A   Unknown
2:00 AM 44 °F - 40 °F 79% 30.16 in 6 mi NNE 3.5 mph - -   Clear
2:00 AM 44.6 °F 43.1 °F 39.2 °F 81% 30.12 in 6.2 mi NNE 3.5 mph - N/A   Unknown
2:30 AM 42.8 °F 41.1 °F 39.2 °F 87% 30.12 in 5.6 mi North 3.5 mph - N/A   Unknown
3:00 AM 42 °F - 38 °F 83% 30.15 in 6 mi North 4.6 mph - -   Clear
3:00 AM 42.8 °F 40.1 °F 39.2 °F 87% 30.12 in 5.6 mi North 4.6 mph - N/A   Unknown
3:30 AM 41.0 °F 39.0 °F 39.2 °F 93% 30.12 in 4.3 mi North 3.5 mph - N/A   Unknown
4:00 AM 41 °F - 39 °F 91% 30.13 in 4 mi North 3.5 mph - -   Clear
4:00 AM 41.0 °F 39.0 °F 39.2 °F 93% 30.09 in 3.7 mi North 3.5 mph - N/A   Unknown
4:30 AM 39.2 °F 37.0 °F 37.4 °F 93% 30.09 in - NNW 3.5 mph - N/A   Mist
5:00 AM 39 °F - 38 °F 96% 30.13 in 3 mi North 3.5 mph - -   Mist
5:00 AM 39.2 °F 37.0 °F 39.2 °F 100% 30.09 in - North 3.5 mph - N/A   Mist
5:30 AM 39.2 °F - 37.4 °F 93% 30.09 in 3.1 mi Variable 2.3 mph - N/A   Mist
6:00 AM 38 °F - 37 °F 95% 30.14 in 2 mi NNW 2.3 mph - -   Mist
6:00 AM 37.4 °F - 37.4 °F 100% 30.09 in 1.6 mi NNW 2.3 mph - N/A   Mist
6:30 AM 37.4 °F - 37.4 °F 100% 30.09 in - NNW 2.3 mph - N/A   Mist
7:00 AM 37 °F - 36 °F 94% 30.14 in 1 mi NW 3.5 mph - -   Mist
7:00 AM 37.4 °F 34.9 °F 35.6 °F 93% 30.12 in 1.3 mi NW 3.5 mph - N/A   Mist
7:30 AM 37.4 °F 34.9 °F 35.6 °F 93% 30.12 in 1.2 mi NW 3.5 mph - N/A   Mist
8:00 AM 37 °F - 37 °F 99% 30.16 in 2 mi NW 3.5 mph - -   Mist
8:00 AM 37.4 °F 34.9 °F 37.4 °F 100% 30.12 in - NW 3.5 mph - N/A   Mist
8:30 AM 39.2 °F - 39.2 °F 100% 30.12 in - NW 2.3 mph - N/A   Mist
9:00 AM 43 °F - 42 °F 94% 30.16 in 2 mi NW 3.5 mph - -   Mist
9:00 AM 42.8 °F 41.1 °F 42.8 °F 100% 30.12 in 2.5 mi NW 3.5 mph - N/A   Mist
9:30 AM 46.4 °F 45.2 °F 42.8 °F 87% 30.15 in 3.1 mi NW 3.5 mph - N/A   Mist
10:00 AM 48 °F - 45 °F 85% 30.17 in 4 mi NNW 3.5 mph - -   Clear
10:00 AM 48.2 °F - 44.6 °F 87% 30.15 in 3.7 mi Variable 3.5 mph - N/A   Unknown
10:30 AM 51.8 °F - 46.4 °F 82% 30.15 in 4.3 mi Variable 3.5 mph - N/A   Unknown
11:00 AM 53 °F - 45 °F 67% 30.16 in 6 mi NW 4.6 mph - -   Clear
11:00 AM 53.6 °F - 44.6 °F 72% 30.15 in 6.2 mi NW 4.6 mph - N/A   Unknown
11:30 AM 55.4 °F - 42.8 °F 63% 30.15 in 6.2 mi NNW 4.6 mph - N/A   Unknown
12:00 PM 57 °F - 40 °F 42% 30.16 in 11 mi North 5.8 mph - -   Clear
12:00 PM 57.2 °F - 41.0 °F 55% 30.15 in 6.2 mi North 5.8 mph - N/A   Unknown
12:30 PM 57.2 °F - 37.4 °F 48% 30.15 in 6.2 mi North 5.8 mph - N/A   Unknown
1:00 PM 58 °F - 38 °F 36% 30.15 in 12 mi North 4.6 mph - -   Clear
1:00 PM 57.2 °F - 39.2 °F 51% 30.15 in 6.2 mi Variable 4.6 mph - N/A   Unknown
1:30 PM 59.0 °F - 39.2 °F 48% 30.12 in 6.2 mi Variable 2.3 mph - N/A   Unknown
2:00 PM 60 °F - 38 °F 32% 30.13 in 11 mi NE 4.6 mph - -   Clear
2:00 PM 59.0 °F - 37.4 °F 45% 30.12 in 6.2 mi NE 4.6 mph - N/A   Unknown
2:30 PM 59.0 °F - 37.4 °F 45% 30.12 in 6.2 mi Variable 3.5 mph - N/A   Unknown
3:00 PM 62 °F - 39 °F 31% 30.12 in 11 mi East 3.5 mph - -   Clear
3:00 PM 60.8 °F - 39.2 °F 45% 30.12 in 6.2 mi Variable 3.5 mph - N/A   Unknown
3:30 PM 60.8 °F - 41.0 °F 48% 30.09 in 6.2 mi Variable 3.5 mph - N/A   Unknown
4:00 PM 61 °F - 39 °F 33% 30.10 in 25 mi SW 5.8 mph - -   Clear
4:00 PM 60.8 °F - 39.2 °F 45% 30.09 in 6.2 mi SW 5.8 mph - N/A   Unknown
4:30 PM 60.8 °F - 37.4 °F 42% 30.09 in 6.2 mi WNW 6.9 mph - N/A   Unknown
5:00 PM 61 °F - 41 °F 36% 30.10 in 28 mi West 8.1 mph - -   Clear
5:00 PM 60.8 °F - 41.0 °F 48% 30.09 in 6.2 mi West 8.1 mph - N/A   Unknown
5:30 PM 60.8 °F - 41.0 °F 48% 30.09 in 6.2 mi WNW 9.2 mph - N/A   Unknown
6:00 PM 61 °F - 40 °F 33% 30.10 in 37 mi NW 5.8 mph - -   Clear
6:00 PM 60.8 °F - 39.2 °F 45% 30.09 in 6.2 mi NW 5.8 mph - N/A   Mostly Cloudy
6:30 PM 60.8 °F - 41.0 °F 48% 30.09 in 6.2 mi NNW 9.2 mph - N/A   Unknown
7:00 PM 58 °F - 39 °F 38% 30.12 in 22 mi NNW 10.4 mph - -   Clear
7:00 PM 57.2 °F - 39.2 °F 51% 30.09 in 6.2 mi NNW 10.4 mph - N/A   Partly Cloudy
7:30 PM 57.2 °F - 37.4 °F 48% 30.12 in 6.2 mi NW 10.4 mph - N/A   Unknown
8:00 PM 56 °F - 39 °F 41% 30.12 in 25 mi NNW 5.8 mph - -   Clear
8:00 PM 55.4 °F - 39.2 °F 54% 30.09 in 6.2 mi NNW 5.8 mph - N/A   Unknown
8:30 PM 55.4 °F - 41.0 °F 58% 30.12 in 6.2 mi NNW 4.6 mph - N/A   Unknown
9:00 PM 54 °F - 41 °F 51% 30.14 in 17 mi NW 6.9 mph - -   Clear
9:00 PM 53.6 °F - 41.0 °F 62% 30.12 in 6.2 mi NW 6.9 mph - N/A   Unknown
9:30 PM 53.6 °F - 41.0 °F 62% 30.12 in 6.2 mi NW 6.9 mph - N/A   Unknown
10:00 PM 51 °F - 42 °F 61% 30.16 in 12 mi NW 8.1 mph - -   Clear
10:00 PM 51.8 °F - 41.0 °F 67% 30.15 in 6.2 mi NW 8.1 mph - N/A   Unknown
10:30 PM 51.8 °F - 42.8 °F 71% 30.15 in 6.2 mi NW 10.4 mph - N/A   Unknown
11:00 PM 51 °F - 42 °F 64% 30.18 in 17 mi WNW 9.2 mph - -   Clear
11:00 PM 50.0 °F - 42.8 °F 76% 30.15 in 6.2 mi WNW 9.2 mph - N/A   Unknown
11:30 PM 50.0 °F - 42.8 °F 76% 30.15 in 6.2 mi WNW 8.1 mph - N/A   Unknown